Powrót do katalogu

SL-14 DEB

LostPO
NORAD 39986·DEBRIS·🇷🇺 Russia

Wystrzelony Aug 18, 1987 z Plesetsk Cosmodrome

Loading…

Następne Przeloty (najbliższe 24 godziny)

TLE

NieaktualneSource: Space-Track

Epoka: Jul 28, 2026, 08:24 UTC

1 39986U 87068DN  26209.35050159  .00000698  00000-0  55476-3 0  9994
2 39986  82.4915 234.5734 0039695 172.1420 246.2729 13.89627554928532

Śledź SL-14 DEB w czasie rzeczywistym z AllMySat

Download on the App Store